HULIANWANG DIGUI-65

导读

HULIANWANG DIGUI-65,即卫星互联网低轨65星,是中国于北京时间2025年8月13日在文昌航天发射场成功发射的低轨通信卫星,属于中国星网低轨卫星互联网星座组网任务的一部分。该卫星由长征五号乙运载火箭/远征二号上面级送入预定轨道,旨在构建覆盖全球的低轨宽带卫星互联网,可为地面各类场景提供宽带通信服务,推动中国卫星互联网建设进程。

基本信息
目录编号:
65171
目录名称:
HULIANWANG DIGUI-65
国际标识:
2025-174H
轨道中心:
EARTH
卫星名称:
HULIANWANG DIGUI-65
卫星全名:
HULIANWANG DIGUI-65
卫星状态:
在轨 (已飞行348 天)
发射日期:
2025-08-13 UTC
国别 :
中国 (CN)
星等 :
--
轨道信息
数据来源 国际轨道数据 AOE轨道数据
星历时间 2026-07-27T22:15:35+0800
8小时前
查看轨道信息
2026-07-27T04:00:00+0800
1天前
查看轨道信息
半长轴 7546.066km 7546.068km
偏心率 0.0001802 0.0001906
轨道倾角 86.485° 86.486°
近地点辐角 101.829° 93.810°
升交点赤经 238.138° 238.395°
平近点角 258.304° 240.867°
近地点 1166.569km 1166.492km
远地点 1169.289km 1169.37km
周期 108.728分钟 108.728分钟
每日圈数 13.244083 13.244078
详细信息
使用方式:
暂无
2D轨道图
3D轨道图
轨道高度分析图
轨道倾角分析图
轨道综合分析图
查看轨道综合分析图